Weather History for Monett, MO

Change the Weather History Date:

Saturday, March 16, 2013

  Actual Average (KJLN) Record (KJLN)
Temperature  
Mean Temperature 52 °F 49 °F  
Max Temperature 62 °F 60 °F 82 °F (2012)
Min Temperature 42 °F 38 °F 19 °F (1988)
Degree Days  
Heating Degree Days 13 16  
Month to date heating degree days 297  
Since 1 July heating degree days 3551  
Cooling Degree Days 0 0  
Month to date cooling degree days 0  
Year to date cooling degree days 1  
Growing Degree Days 2 (Base 50)    
Moisture  
Dew Point 42 °F    
Average Humidity 63    
Maximum Humidity 76    
Minimum Humidity 52    
Precipitation  
Precipitation 0.00 in 0.11 in 1.52 in (1970)
Month to date precipitation 1.67  
Year to date precipitation 6.02  
Sea Level Pressure  
Sea Level Pressure 29.84 in    
Wind  
Wind Speed 12 mph (NNE)    
Max Wind Speed 17 mph    
Max Gust Speed 25 mph    
Visibility 10 miles    
Events Thunderstorm    
T = Trace of Precipitation, MM = Missing Value Source: NWS Daily Summary

Daily Weather History Graph

Daily Weather History Graph

Search for Another Location

Airport:

Trip Planner

Search our weather history database for the weather conditions in past years. The results will help you decide how hot, cold, wet, or windy it might be!

Date:

Astronomy

Mar. 16, 2013 Rise Set
Actual Time 7:25 AM CDT 7:24 PM CDT
Civil Twilight 6:59 AM CDT 7:50 PM CDT
Nautical Twilight 6:29 AM CDT 8:20 PM CDT
Astronomical Twilight 5:58 AM CDT 8:51 PM CDT
Moon 10:02 AM CDT (3/16) No Moon Set
Length of Visible Light 12h 51m
Length of Day
11h 59m
Waxing Crescent, 23% of the Moon is Illuminated
Mar 16
Waxing Crescent
Mar 19
First Quarter
Mar 27
Full
Apr 2
Last Quarter
Apr 10
New

Hourly Weather History & Observations

Time (CDT) Temp. Windchill Dew Point Humidity Pressure Visibility Wind Dir Wind Speed Gust Speed Precip Events Conditions
12:15 AM 62.6 °F - 44.6 °F 52% 29.77 in 10.0 mi SSW 16.1 mph - N/A   Clear
12:35 AM 62.6 °F - 44.6 °F 52% 29.77 in 10.0 mi SSW 16.1 mph 20.7 mph N/A   Clear
12:55 AM 62.6 °F - 44.6 °F 52% 29.77 in 10.0 mi SSW 15.0 mph 21.9 mph N/A   Clear
1:15 AM 62.6 °F - 44.6 °F 52% 29.77 in 10.0 mi SSW 15.0 mph 20.7 mph N/A   Clear
1:55 AM 60.8 °F - 44.6 °F 55% 29.77 in 10.0 mi SSW 15.0 mph - N/A   Clear
2:15 AM 60.8 °F - 44.6 °F 55% 29.76 in 10.0 mi SSW 12.7 mph - N/A   Clear
2:35 AM 60.8 °F - 42.8 °F 52% 29.76 in 10.0 mi SW 11.5 mph - N/A   Clear
2:55 AM 60.8 °F - 42.8 °F 52% 29.76 in 10.0 mi SW 13.8 mph - N/A   Clear
3:15 AM 59.0 °F - 42.8 °F 55% 29.76 in 10.0 mi SW 11.5 mph - N/A   Clear
3:35 AM 59.0 °F - 42.8 °F 55% 29.76 in 10.0 mi SW 11.5 mph - N/A   Clear
3:55 AM 59.0 °F - 42.8 °F 55% 29.76 in 10.0 mi SW 12.7 mph - N/A   Clear
4:35 AM 59.0 °F - 42.8 °F 55% 29.75 in 10.0 mi SSW 13.8 mph - N/A   Clear
4:55 AM 59.0 °F - 42.8 °F 55% 29.75 in 10.0 mi SSW 12.7 mph - N/A   Clear
5:15 AM 57.2 °F - 42.8 °F 59% 29.78 in 10.0 mi WNW 9.2 mph - N/A   Clear
5:35 AM 55.4 °F - 42.8 °F 63% 29.81 in 10.0 mi NNW 8.1 mph - N/A   Clear
5:55 AM 55.4 °F - 42.8 °F 63% 29.81 in 10.0 mi NW 5.8 mph - N/A   Clear
6:15 AM 55.4 °F - 42.8 °F 63% 29.81 in 10.0 mi WSW 4.6 mph - N/A   Clear
6:35 AM 55.4 °F - 42.8 °F 63% 29.82 in 10.0 mi SW 4.6 mph - N/A   Clear
6:55 AM 53.6 °F - 42.8 °F 67% 29.81 in 10.0 mi SSW 10.4 mph - N/A   Clear
7:15 AM 55.4 °F - 42.8 °F 63% 29.81 in 10.0 mi SSW 10.4 mph - N/A   Clear
7:35 AM 55.4 °F - 42.8 °F 63% 29.81 in 10.0 mi WSW 5.8 mph - N/A   Clear
7:55 AM 55.4 °F - 42.8 °F 63% 29.82 in 10.0 mi West 4.6 mph - N/A   Clear
8:15 AM 55.4 °F - 42.8 °F 63% 29.83 in 10.0 mi North 8.1 mph - N/A   Clear
8:35 AM 53.6 °F - 42.8 °F 67% 29.84 in 10.0 mi North 4.6 mph - N/A   Clear
8:55 AM 55.4 °F - 44.6 °F 67% 29.86 in 10.0 mi North 6.9 mph - N/A   Clear
9:15 AM 55.4 °F - 44.6 °F 67% 29.86 in 10.0 mi NNE 4.6 mph - N/A   Clear
9:35 AM 57.2 °F - 46.4 °F 67% 29.86 in 10.0 mi NNE 3.5 mph - N/A   Clear
9:55 AM 59.0 °F - 46.4 °F 63% 29.86 in 10.0 mi NNE 8.1 mph - N/A   Clear
10:15 AM 59.0 °F - 46.4 °F 63% 29.87 in 10.0 mi NNE 9.2 mph - N/A   Clear
10:35 AM 59.0 °F - 46.4 °F 63% 29.88 in 10.0 mi NNE 11.5 mph - N/A   Clear
10:55 AM 59.0 °F - 46.4 °F 63% 29.88 in 10.0 mi NE 10.4 mph - N/A   Clear
11:15 AM 60.8 °F - 46.4 °F 59% 29.88 in 10.0 mi NE 9.2 mph - N/A   Clear
11:35 AM 60.8 °F - 46.4 °F 59% 29.88 in 10.0 mi NNE 11.5 mph 17.3 mph N/A   Clear
11:55 AM 60.8 °F - 46.4 °F 59% 29.88 in 10.0 mi NNE 12.7 mph 17.3 mph N/A   Clear
12:15 PM 60.8 °F - 46.4 °F 59% 29.88 in 10.0 mi NNE 12.7 mph 18.4 mph N/A   Clear
12:35 PM 60.8 °F - 46.4 °F 59% 29.88 in 10.0 mi NE 13.8 mph 17.3 mph N/A   Clear
12:55 PM 60.8 °F - 46.4 °F 59% 29.88 in 10.0 mi NNE 13.8 mph 18.4 mph N/A   Clear
1:15 PM 60.8 °F - 44.6 °F 55% 29.88 in 10.0 mi NNE 12.7 mph - N/A   Clear
1:35 PM 60.8 °F - 46.4 °F 59% 29.88 in 10.0 mi NE 11.5 mph 18.4 mph N/A   Clear
1:55 PM 60.8 °F - 44.6 °F 55% 29.87 in 10.0 mi NNE 10.4 mph - N/A   Clear
2:15 PM 60.8 °F - 44.6 °F 55% 29.86 in 10.0 mi NNE 12.7 mph 18.4 mph N/A   Clear
2:35 PM 62.6 °F - 44.6 °F 52% 29.85 in 10.0 mi NNE 12.7 mph 19.6 mph N/A   Clear
2:55 PM 60.8 °F - 44.6 °F 55% 29.84 in 10.0 mi NNE 16.1 mph 20.7 mph N/A   Clear
3:15 PM 59.0 °F - 44.6 °F 59% 29.83 in 10.0 mi NNE 16.1 mph 21.9 mph N/A   Clear
3:35 PM 59.0 °F - 44.6 °F 59% 29.84 in 10.0 mi NNE 17.3 mph 23.0 mph N/A   Clear
3:55 PM 59.0 °F - 42.8 °F 55% 29.83 in 10.0 mi NNE 16.1 mph 25.3 mph N/A   Clear
4:15 PM 59.0 °F - 42.8 °F 55% 29.82 in 10.0 mi NNE 16.1 mph 21.9 mph N/A   Clear
4:35 PM 57.2 °F - 41.0 °F 55% 29.82 in 10.0 mi NNE 15.0 mph 23.0 mph N/A   Clear
4:55 PM 57.2 °F - 42.8 °F 59% 29.82 in 10.0 mi NNE 15.0 mph 23.0 mph N/A   Clear
5:15 PM 55.4 °F - 42.8 °F 63% 29.83 in 10.0 mi NNE 16.1 mph 23.0 mph N/A   Clear
5:35 PM 53.6 °F - 41.0 °F 62% 29.84 in 7.0 mi NNE 16.1 mph 21.9 mph N/A   Clear
5:55 PM 51.8 °F - 41.0 °F 67% 29.84 in 7.0 mi NNE 15.0 mph 23.0 mph N/A   Clear
6:15 PM 51.8 °F - 41.0 °F 67% 29.84 in 7.0 mi NNE 15.0 mph 24.2 mph N/A   Clear
6:35 PM 50.0 °F - 41.0 °F 71% 29.86 in 7.0 mi NNE 13.8 mph 21.9 mph N/A   Clear
6:55 PM 48.2 °F - 39.2 °F 71% 29.86 in 5.0 mi NNE 13.8 mph 19.6 mph N/A   Haze
7:15 PM 46.4 °F 40.1 °F 39.2 °F 76% 29.86 in 7.0 mi NNE 15.0 mph 21.9 mph N/A   Overcast
7:35 PM 46.4 °F 41.1 °F 37.4 °F 71% 29.86 in 5.0 mi NNE 11.5 mph 18.4 mph N/A   Haze
7:55 PM 46.4 °F 41.5 °F 37.4 °F 71% 29.87 in 7.0 mi NNE 10.4 mph - N/A   Overcast
8:15 PM 44.6 °F 38.8 °F 37.4 °F 76% 29.87 in 7.0 mi NNE 11.5 mph 16.1 mph N/A   Overcast
8:35 PM 44.6 °F 38.4 °F 37.4 °F 76% 29.88 in 7.0 mi NE 12.7 mph 18.4 mph N/A   Overcast
8:55 PM 44.6 °F 39.2 °F 37.4 °F 76% 29.89 in 7.0 mi NE 10.4 mph 16.1 mph N/A   Overcast
9:15 PM 44.6 °F 37.8 °F 35.6 °F 71% 29.90 in 10.0 mi NE 15.0 mph 19.6 mph N/A   Overcast
9:55 PM 42.8 °F 35.4 °F 35.6 °F 76% 29.90 in 10.0 mi NE 15.0 mph 21.9 mph N/A   Overcast
10:15 PM 42.8 °F 37.0 °F 35.6 °F 76% 29.90 in 10.0 mi NNE 10.4 mph 16.1 mph N/A   Overcast
10:35 PM 42.8 °F 36.6 °F 35.6 °F 76% 29.89 in 10.0 mi NE 11.5 mph 16.1 mph N/A   Overcast
10:55 PM 42.8 °F 37.0 °F 35.6 °F 76% 29.90 in 10.0 mi NNE 10.4 mph 18.4 mph N/A   Overcast
11:15 PM 42.8 °F 38.0 °F 35.6 °F 76% 29.90 in 10.0 mi NE 8.1 mph 21.9 mph N/A   Overcast
11:35 PM 42.8 °F 35.8 °F 35.6 °F 76% 29.89 in 10.0 mi NE 13.8 mph - N/A   Overcast
11:55 PM 42.8 °F 37.5 °F 35.6 °F 76% 29.88 in 10.0 mi ENE 9.2 mph 17.3 mph N/A Thunderstorm Overcast